"datetime","temp","dp","rain_mm","uv","mb"
"2021-03-16 00:00:00",5.2,4.2,0.0,0.0,1025.5
"2021-03-16 00:01:00",5.2,4.2,0.0,0.0,1025.5
"2021-03-16 00:02:00",5.2,4.2,0.0,0.0,1025.5
"2021-03-16 00:03:00",5.2,4.2,0.0,0.0,1025.6
"2021-03-16 00:04:00",5.2,4.2,0.0,0.0,1025.5
"2021-03-16 00:05:00",5.2,4.2,0.0,0.0,1025.5
"2021-03-16 00:06:00",5.2,4.2,0.0,0.0,1025.5
"2021-03-16 00:07:00",5.2,4.2,0.0,0.0,1025.5
"2021-03-16 00:08:00",5.2,4.2,0.0,0.0,1025.5
"2021-03-16 00:09:00",5.2,4.2,0.0,0.0,1025.5
"2021-03-16 00:10:00",5.2,4.2,0.0,0.0,1025.5
"2021-03-16 00:11:00",5.2,4.2,0.0,0.0,1025.5
"2021-03-16 00:12:00",5.2,4.2,0.0,0.0,1025.5
"2021-03-16 00:13:00",5.2,4.2,0.0,0.0,1025.6
"2021-03-16 00:14:00",5.2,4.2,0.0,0.0,1025.6
"2021-03-16 00:15:00",5.2,4.2,0.0,0.0,1025.6
"2021-03-16 00:16:00",5.2,4.2,0.0,0.0,1025.6
"2021-03-16 00:17:00",5.2,4.2,0.0,0.0,1025.5
"2021-03-16 00:18:00",5.2,4.2,0.0,0.0,1025.6
"2021-03-16 00:19:00",5.2,4.2,0.0,0.0,1025.6
"2021-03-16 00:20:00",5.2,4.2,0.0,0.0,1025.6
"2021-03-16 00:21:00",5.2,4.2,0.0,0.0,1025.6
"2021-03-16 00:22:00",5.2,4.2,0.0,0.0,1025.6
"2021-03-16 00:23:00",5.2,4.2,0.0,0.0,1025.6
"2021-03-16 00:24:00",5.2,4.2,0.0,0.0,1025.6
"2021-03-16 00:25:00",5.2,4.2,0.0,0.0,1025.5
"2021-03-16 00:26:00",5.2,4.2,0.0,0.0,1025.6
"2021-03-16 00:27:00",5.2,4.2,0.0,0.0,1025.6
"2021-03-16 00:28:00",5.2,4.2,0.0,0.0,1025.6
"2021-03-16 00:29:00",5.2,4.2,0.0,0.0,1025.6
"2021-03-16 00:30:00",5.1,4.1,0.0,0.0,1025.6
"2021-03-16 00:31:00",5.2,4.2,0.0,0.0,1025.6
"2021-03-16 00:32:00",5.2,4.2,0.0,0.0,1025.7
"2021-03-16 00:33:00",5.2,4.2,0.0,0.0,1025.7
"2021-03-16 00:34:00",5.2,4.2,0.0,0.0,1025.7
"2021-03-16 00:35:00",5.2,4.2,0.0,0.0,1025.7
"2021-03-16 00:36:00",5.2,4.2,0.0,0.0,1025.7
"2021-03-16 00:37:00",5.2,4.2,0.0,0.0,1025.7
"2021-03-16 00:38:00",5.2,4.2,0.0,0.0,1025.8
"2021-03-16 00:39:00",5.2,4.2,0.0,0.0,1025.7
"2021-03-16 00:40:00",5.2,4.2,0.0,0.0,1025.8
"2021-03-16 00:41:00",5.2,4.2,0.0,0.0,1025.8
"2021-03-16 00:42:00",5.2,4.2,0.0,0.0,1025.8
"2021-03-16 00:43:00",5.2,4.2,0.0,0.0,1025.8
"2021-03-16 00:44:00",5.2,4.2,0.0,0.0,1025.8
"2021-03-16 00:45:00",5.2,4.2,0.0,0.0,1025.8
"2021-03-16 00:46:00",5.2,4.2,0.0,0.0,1025.9
"2021-03-16 00:47:00",5.2,4.2,0.0,0.0,1025.9
"2021-03-16 00:48:00",5.2,4.2,0.0,0.0,1025.9
"2021-03-16 00:49:00",5.2,4.2,0.0,0.0,1025.9
"2021-03-16 00:50:00",5.2,4.2,0.0,0.0,1025.9
"2021-03-16 00:51:00",5.2,4.2,0.0,0.0,1025.9
"2021-03-16 00:52:00",5.2,4.2,0.0,0.0,1025.9
"2021-03-16 00:53:00",5.2,4.2,0.0,0.0,1025.9
"2021-03-16 00:54:00",5.2,4.2,0.0,0.0,1025.9
"2021-03-16 00:55:00",5.2,4.2,0.0,0.0,1025.9
"2021-03-16 00:56:00",5.2,4.2,0.0,0.0,1025.9
"2021-03-16 00:57:00",5.2,4.2,0.0,0.0,1025.9
"2021-03-16 00:58:00",5.2,4.2,0.0,0.0,1025.9
"2021-03-16 00:59:00",5.2,4.2,0.0,0.0,1025.9
"2021-03-16 01:00:00",5.2,4.2,0.0,0.0,1026.0
"2021-03-16 01:01:00",5.2,4.2,0.0,0.0,1025.9
"2021-03-16 01:02:00",5.2,4.2,0.0,0.0,1025.9
"2021-03-16 01:03:00",5.2,4.2,0.0,0.0,1025.9
"2021-03-16 01:04:00",5.2,4.2,0.0,0.0,1025.9
"2021-03-16 01:05:00",5.2,4.2,0.0,0.0,1025.9
"2021-03-16 01:06:00",5.2,4.2,0.0,0.0,1025.9
"2021-03-16 01:07:00",5.2,4.2,0.0,0.0,1025.9
"2021-03-16 01:08:00",5.2,4.2,0.0,0.0,1026.0
"2021-03-16 01:09:00",5.2,4.2,0.0,0.0,1026.0
"2021-03-16 01:10:00",5.2,4.2,0.0,0.0,1026.0
"2021-03-16 01:11:00",5.2,4.2,0.0,0.0,1026.0
"2021-03-16 01:12:00",5.2,4.2,0.0,0.0,1026.0
"2021-03-16 01:13:00",5.2,4.2,0.0,0.0,1026.0
"2021-03-16 01:14:00",5.2,4.2,0.0,0.0,1026.0
"2021-03-16 01:15:00",5.2,4.2,0.0,0.0,1026.1
"2021-03-16 01:16:00",5.2,4.2,0.0,0.0,1026.1
"2021-03-16 01:17:00",5.2,4.2,0.0,0.0,1026.1
"2021-03-16 01:18:00",5.2,4.2,0.0,0.0,1026.1
"2021-03-16 01:19:00",5.2,4.2,0.0,0.0,1026.1
"2021-03-16 01:20:00",5.2,4.2,0.0,0.0,1026.1
"2021-03-16 01:21:00",5.2,4.2,0.0,0.0,1026.1
"2021-03-16 01:22:00",5.2,4.2,0.0,0.0,1026.1
"2021-03-16 01:23:00",5.3,4.3,0.0,0.0,1026.1
"2021-03-16 01:24:00",5.3,4.3,0.0,0.0,1026.1
"2021-03-16 01:25:00",5.3,4.3,0.0,0.0,1026.1
"2021-03-16 01:26:00",5.2,4.2,0.0,0.0,1026.1
"2021-03-16 01:27:00",5.3,4.3,0.0,0.0,1026.1
"2021-03-16 01:28:00",5.3,4.3,0.0,0.0,1026.1
"2021-03-16 01:29:00",5.3,4.3,0.0,0.0,1026.1
"2021-03-16 01:30:00",5.3,4.3,0.0,0.0,1026.1
"2021-03-16 01:31:00",5.3,4.3,0.0,0.0,1026.0
"2021-03-16 01:32:00",5.3,4.3,0.0,0.0,1026.0
"2021-03-16 01:33:00",5.3,4.3,0.0,0.0,1026.0
"2021-03-16 01:34:00",5.3,4.3,0.0,0.0,1026.0
"2021-03-16 01:35:00",5.3,4.3,0.0,0.0,1026.0
"2021-03-16 01:36:00",5.3,4.3,0.0,0.0,1026.0
"2021-03-16 01:37:00",5.3,4.3,0.0,0.0,1026.0
"2021-03-16 01:38:00",5.3,4.3,0.0,0.0,1026.0
"2021-03-16 01:39:00",5.3,4.3,0.0,0.0,1026.0
"2021-03-16 01:40:00",5.2,4.2,0.0,0.0,1026.1
"2021-03-16 01:41:00",5.3,4.3,0.0,0.0,1026.1
"2021-03-16 01:42:00",5.3,4.3,0.0,0.0,1026.1
"2021-03-16 01:43:00",5.3,4.3,0.0,0.0,1026.0
"2021-03-16 01:44:00",5.3,4.3,0.0,0.0,1026.1
"2021-03-16 01:45:00",5.3,4.3,0.0,0.0,1026.1
"2021-03-16 01:46:00",5.3,4.3,0.0,0.0,1026.1
"2021-03-16 01:47:00",5.3,4.3,0.0,0.0,1026.0
"2021-03-16 01:48:00",5.3,4.3,0.0,0.0,1026.1
"2021-03-16 01:49:00",5.3,4.3,0.0,0.0,1026.0
"2021-03-16 01:50:00",5.3,4.3,0.0,0.0,1026.0
"2021-03-16 01:51:00",5.3,4.3,0.0,0.0,1026.0
"2021-03-16 01:52:00",5.3,4.3,0.0,0.0,1026.0
"2021-03-16 01:53:00",5.3,4.3,0.0,0.0,1026.0
"2021-03-16 01:54:00",5.3,4.3,0.0,0.0,1025.9
"2021-03-16 01:55:00",5.3,4.3,0.0,0.0,1025.9
"2021-03-16 01:56:00",5.3,4.3,0.0,0.0,1026.0
"2021-03-16 01:57:00",5.3,4.3,0.0,0.0,1026.0
"2021-03-16 01:58:00",5.3,4.3,0.0,0.0,1025.9
"2021-03-16 01:59:00",5.3,4.3,0.0,0.0,1025.9
"2021-03-16 02:00:00",5.3,4.3,0.0,0.0,1025.9
"2021-03-16 02:01:00",5.3,4.3,0.0,0.0,1025.9
"2021-03-16 02:02:00",5.3,4.3,0.0,0.0,1025.9
"2021-03-16 02:03:00",5.3,4.3,0.0,0.0,1025.9
"2021-03-16 02:04:00",5.3,4.3,0.0,0.0,1025.9
"2021-03-16 02:05:00",5.3,4.3,0.0,0.0,1025.9
"2021-03-16 02:06:00",5.3,4.3,0.0,0.0,1025.9
"2021-03-16 02:07:00",5.3,4.3,0.0,0.0,1025.9
"2021-03-16 02:08:00",5.3,4.3,0.0,0.0,1025.9
"2021-03-16 02:09:00",5.3,4.3,0.0,0.0,1025.9
"2021-03-16 02:10:00",5.3,4.3,0.0,0.0,1026.0
"2021-03-16 02:11:00",5.3,4.3,0.0,0.0,1025.9
"2021-03-16 02:12:00",5.3,4.3,0.0,0.0,1025.9
"2021-03-16 02:13:00",5.3,4.3,0.0,0.0,1026.0
"2021-03-16 02:14:00",5.3,4.3,0.0,0.0,1025.9
"2021-03-16 02:15:00",5.3,4.3,0.0,0.0,1025.9
"2021-03-16 02:16:00",5.3,4.3,0.0,0.0,1025.8
"2021-03-16 02:17:00",5.3,4.3,0.0,0.0,1025.8
"2021-03-16 02:18:00",5.3,4.3,0.0,0.0,1025.9
"2021-03-16 02:19:00",5.3,4.3,0.0,0.0,1025.8
"2021-03-16 02:20:00",5.3,4.3,0.0,0.0,1025.8
"2021-03-16 02:21:00",5.3,4.3,0.0,0.0,1025.8
"2021-03-16 02:22:00",5.3,4.3,0.0,0.0,1025.8
"2021-03-16 02:23:00",5.3,4.3,0.0,0.0,1025.8
"2021-03-16 02:24:00",5.3,4.3,0.0,0.0,1025.8
"2021-03-16 02:25:00",5.3,4.3,0.0,0.0,1025.8
"2021-03-16 02:26:00",5.3,4.3,0.0,0.0,1025.8
"2021-03-16 02:27:00",5.3,4.3,0.0,0.0,1025.8
"2021-03-16 02:28:00",5.3,4.3,0.0,0.0,1025.9
"2021-03-16 02:29:00",5.3,4.3,0.0,0.0,1025.9
"2021-03-16 02:30:00",5.3,4.3,0.0,0.0,1025.9
"2021-03-16 02:31:00",5.3,4.3,0.0,0.0,1025.9
"2021-03-16 02:32:00",5.3,4.3,0.0,0.0,1025.9
"2021-03-16 02:33:00",5.3,4.3,0.0,0.0,1025.9
"2021-03-16 02:34:00",5.3,4.3,0.0,0.0,1025.9
"2021-03-16 02:35:00",5.2,4.2,0.0,0.0,1025.9
"2021-03-16 02:36:00",5.3,4.3,0.0,0.0,1026.0
"2021-03-16 02:37:00",5.2,4.2,0.0,0.0,1025.9
"2021-03-16 02:38:00",5.2,4.2,0.0,0.0,1025.9
"2021-03-16 02:39:00",5.3,4.3,0.0,0.0,1025.9
"2021-03-16 02:40:00",5.3,4.3,0.0,0.0,1025.9
"2021-03-16 02:41:00",5.2,4.2,0.0,0.0,1025.9
"2021-03-16 02:42:00",5.2,4.2,0.0,0.0,1025.8
"2021-03-16 02:43:00",5.2,4.2,0.0,0.0,1025.8
"2021-03-16 02:44:00",5.2,4.2,0.0,0.0,1025.8
"2021-03-16 02:45:00",5.2,4.2,0.0,0.0,1025.8
"2021-03-16 02:46:00",5.2,4.2,0.0,0.0,1025.8
"2021-03-16 02:47:00",5.2,4.2,0.0,0.0,1025.9
"2021-03-16 02:48:00",5.2,4.2,0.0,0.0,1025.8
"2021-03-16 02:49:00",5.2,4.2,0.0,0.0,1025.9
"2021-03-16 02:50:00",5.2,4.2,0.0,0.0,1025.9
"2021-03-16 02:51:00",5.2,4.2,0.0,0.0,1025.9
"2021-03-16 02:52:00",5.1,4.1,0.0,0.0,1025.9
"2021-03-16 02:53:00",5.1,4.1,0.0,0.0,1025.8
"2021-03-16 02:54:00",5.1,4.1,0.0,0.0,1025.9
"2021-03-16 02:55:00",5.1,4.1,0.0,0.0,1025.9
"2021-03-16 02:56:00",5.1,4.1,0.0,0.0,1025.9
"2021-03-16 02:57:00",5.1,4.1,0.0,0.0,1025.9
"2021-03-16 02:58:00",5.1,4.1,0.0,0.0,1025.9
"2021-03-16 02:59:00",5.1,4.1,0.0,0.0,1025.9
"2021-03-16 03:00:00",5.1,4.1,0.0,0.0,1026.0
"2021-03-16 03:01:00",5.1,4.1,0.0,0.0,1026.0
"2021-03-16 03:02:00",5.1,4.1,0.0,0.0,1026.0
"2021-03-16 03:03:00",5.1,4.1,0.0,0.0,1025.9
"2021-03-16 03:04:00",5.0,4.0,0.0,0.0,1025.9
"2021-03-16 03:05:00",5.0,4.0,0.0,0.0,1025.8
"2021-03-16 03:06:00",5.0,3.8,0.0,0.0,1025.8
"2021-03-16 03:07:00",4.9,3.9,0.0,0.0,1025.8
"2021-03-16 03:08:00",5.0,3.8,0.0,0.0,1025.8
"2021-03-16 03:09:00",4.9,3.9,0.0,0.0,1025.8
"2021-03-16 03:10:00",4.9,3.9,0.0,0.0,1025.8
"2021-03-16 03:11:00",4.9,3.9,0.0,0.0,1025.8
"2021-03-16 03:12:00",4.9,3.9,0.0,0.0,1025.8
"2021-03-16 03:13:00",4.9,3.9,0.0,0.0,1025.8
"2021-03-16 03:14:00",4.9,3.7,0.0,0.0,1025.9
"2021-03-16 03:15:00",4.9,3.7,0.0,0.0,1025.9
"2021-03-16 03:16:00",4.9,3.7,0.0,0.0,1025.9
"2021-03-16 03:17:00",4.9,3.7,0.0,0.0,1025.8
"2021-03-16 03:18:00",4.9,3.7,0.0,0.0,1025.8
"2021-03-16 03:19:00",4.8,3.6,0.0,0.0,1025.8
"2021-03-16 03:20:00",4.8,3.6,0.0,0.0,1025.7
"2021-03-16 03:21:00",4.8,3.6,0.0,0.0,1025.6
"2021-03-16 03:22:00",4.8,3.6,0.0,0.0,1025.7
"2021-03-16 03:23:00",4.8,3.6,0.0,0.0,1025.7
"2021-03-16 03:24:00",4.8,3.6,0.0,0.0,1025.8
"2021-03-16 03:25:00",4.8,3.8,0.0,0.0,1025.8
"2021-03-16 03:26:00",4.8,3.8,0.0,0.0,1025.8
"2021-03-16 03:27:00",4.8,3.8,0.0,0.0,1025.8
"2021-03-16 03:28:00",4.8,3.8,0.0,0.0,1025.7
"2021-03-16 03:29:00",4.8,3.8,0.0,0.0,1025.7
"2021-03-16 03:30:00",4.7,3.7,0.0,0.0,1025.7
"2021-03-16 03:31:00",4.7,3.7,0.0,0.0,1025.7
"2021-03-16 03:32:00",4.7,3.7,0.0,0.0,1025.7
"2021-03-16 03:33:00",4.7,3.7,0.0,0.0,1025.7
"2021-03-16 03:34:00",4.7,3.7,0.0,0.0,1025.7
"2021-03-16 03:35:00",4.7,3.7,0.0,0.0,1025.7
"2021-03-16 03:36:00",4.7,3.7,0.0,0.0,1025.7
"2021-03-16 03:37:00",4.7,3.7,0.0,0.0,1025.7
"2021-03-16 03:38:00",4.7,3.7,0.0,0.0,1025.7
"2021-03-16 03:39:00",4.7,3.7,0.0,0.0,1025.6
"2021-03-16 03:40:00",4.7,3.7,0.0,0.0,1025.6
"2021-03-16 03:41:00",4.7,3.7,0.0,0.0,1025.6
"2021-03-16 03:42:00",4.7,3.7,0.0,0.0,1025.6
"2021-03-16 03:43:00",4.7,3.7,0.0,0.0,1025.6
"2021-03-16 03:44:00",4.7,3.7,0.0,0.0,1025.6
"2021-03-16 03:45:00",4.7,3.7,0.0,0.0,1025.6
"2021-03-16 03:46:00",4.7,3.7,0.0,0.0,1025.6
"2021-03-16 03:47:00",4.6,3.6,0.0,0.0,1025.6
"2021-03-16 03:48:00",4.6,3.4,0.0,0.0,1025.7
"2021-03-16 03:49:00",4.6,3.4,0.0,0.0,1025.6
"2021-03-16 03:50:00",4.6,3.6,0.0,0.0,1025.5
"2021-03-16 03:51:00",4.6,3.6,0.0,0.0,1025.6
"2021-03-16 03:52:00",4.6,3.6,0.0,0.0,1025.6
"2021-03-16 03:53:00",4.6,3.6,0.0,0.0,1025.6
"2021-03-16 03:54:00",4.6,3.6,0.0,0.0,1025.6
"2021-03-16 03:55:00",4.6,3.6,0.0,0.0,1025.5
"2021-03-16 03:56:00",4.6,3.6,0.0,0.0,1025.4
"2021-03-16 03:57:00",4.6,3.6,0.0,0.0,1025.4
"2021-03-16 03:58:00",4.6,3.6,0.0,0.0,1025.4
"2021-03-16 03:59:00",4.6,3.6,0.0,0.0,1025.4
"2021-03-16 04:00:00",4.6,3.6,0.0,0.0,1025.4
"2021-03-16 04:01:00",4.6,3.6,0.0,0.0,1025.4
"2021-03-16 04:02:00",4.6,3.6,0.0,0.0,1025.4
"2021-03-16 04:03:00",4.6,3.6,0.0,0.0,1025.4
"2021-03-16 04:04:00",4.6,3.6,0.0,0.0,1025.3
"2021-03-16 04:05:00",4.6,3.6,0.0,0.0,1025.3
"2021-03-16 04:06:00",4.6,3.6,0.0,0.0,1025.3
"2021-03-16 04:07:00",4.6,3.6,0.0,0.0,1025.3
"2021-03-16 04:08:00",4.6,3.6,0.0,0.0,1025.3
"2021-03-16 04:09:00",4.6,3.6,0.0,0.0,1025.3
"2021-03-16 04:10:00",4.6,3.6,0.0,0.0,1025.3
"2021-03-16 04:11:00",4.6,3.6,0.0,0.0,1025.3
"2021-03-16 04:12:00",4.6,3.6,0.0,0.0,1025.3
"2021-03-16 04:13:00",4.6,3.6,0.0,0.0,1025.3
"2021-03-16 04:14:00",4.6,3.6,0.0,0.0,1025.3
"2021-03-16 04:15:00",4.6,3.6,0.0,0.0,1025.3
"2021-03-16 04:16:00",4.6,3.6,0.0,0.0,1025.4
"2021-03-16 04:17:00",4.6,3.6,0.0,0.0,1025.3
"2021-03-16 04:18:00",4.6,3.6,0.0,0.0,1025.4
"2021-03-16 04:19:00",4.6,3.6,0.0,0.0,1025.4
"2021-03-16 04:20:00",4.6,3.6,0.0,0.0,1025.4
"2021-03-16 04:21:00",4.6,3.6,0.0,0.0,1025.4
"2021-03-16 04:22:00",4.6,3.6,0.0,0.0,1025.4
"2021-03-16 04:23:00",4.6,3.6,0.0,0.0,1025.4
"2021-03-16 04:24:00",4.6,3.6,0.0,0.0,1025.4
"2021-03-16 04:25:00",4.6,3.6,0.0,0.0,1025.4
"2021-03-16 04:26:00",4.6,3.6,0.0,0.0,1025.4
"2021-03-16 04:27:00",4.6,3.6,0.0,0.0,1025.4
"2021-03-16 04:28:00",4.7,3.7,0.0,0.0,1025.4
"2021-03-16 04:29:00",4.6,3.6,0.0,0.0,1025.4
"2021-03-16 04:30:00",4.7,3.7,0.0,0.0,1025.4
"2021-03-16 04:31:00",4.7,3.7,0.0,0.0,1025.4
"2021-03-16 04:32:00",4.7,3.7,0.0,0.0,1025.4
"2021-03-16 04:33:00",4.7,3.7,0.0,0.0,1025.4
"2021-03-16 04:34:00",4.7,3.7,0.0,0.0,1025.4
"2021-03-16 04:35:00",4.7,3.7,0.0,0.0,1025.4
"2021-03-16 04:36:00",4.7,3.7,0.0,0.0,1025.3
"2021-03-16 04:37:00",4.7,3.7,0.0,0.0,1025.3
"2021-03-16 04:38:00",4.7,3.7,0.0,0.0,1025.3
"2021-03-16 04:39:00",4.7,3.7,0.0,0.0,1025.3
"2021-03-16 04:40:00",4.7,3.7,0.0,0.0,1025.3
"2021-03-16 04:41:00",4.7,3.7,0.0,0.0,1025.3
"2021-03-16 08:53:00",11.1,9.5,0.0,0.0,1025.5
"2021-03-16 08:54:00",11.0,9.4,0.0,0.0,1025.6
"2021-03-16 08:55:00",11.0,9.4,0.0,0.0,1025.5
"2021-03-16 08:56:00",11.0,9.4,0.0,0.0,1025.5
"2021-03-16 08:57:00",11.0,9.4,0.0,0.0,1025.6
"2021-03-16 08:58:00",11.0,9.3,0.0,0.0,1025.5
"2021-03-16 08:59:00",10.9,9.3,0.0,0.5,1025.6
"2021-03-16 09:00:00",10.9,9.3,0.0,0.0,1025.6
"2021-03-16 09:01:00",10.9,9.2,0.0,0.0,1025.6
"2021-03-16 09:02:00",10.9,9.3,0.0,0.0,1025.5
"2021-03-16 09:03:00",10.9,9.5,0.0,0.5,1025.6
"2021-03-16 09:04:00",10.9,9.3,0.0,0.6,1025.5
"2021-03-16 09:05:00",11.0,9.6,0.0,0.6,1025.5
"2021-03-16 09:06:00",11.0,9.6,0.0,0.6,1025.5
"2021-03-16 09:07:00",11.1,9.5,0.0,0.6,1025.5
"2021-03-16 09:08:00",11.0,9.4,0.0,0.7,1025.5
"2021-03-16 09:09:00",11.1,9.5,0.0,0.7,1025.5
"2021-03-16 09:10:00",11.1,9.5,0.0,1.0,1025.5
"2021-03-16 09:11:00",11.1,9.7,0.0,0.9,1025.5
"2021-03-16 09:12:00",11.2,9.8,0.0,1.1,1025.5
"2021-03-16 09:13:00",11.2,9.6,0.0,1.2,1025.4
"2021-03-16 09:14:00",11.3,9.7,0.0,1.0,1025.4
"2021-03-16 09:15:00",11.4,9.8,0.0,0.9,1025.4
"2021-03-16 09:16:00",11.5,9.7,0.0,1.0,1025.4
"2021-03-16 09:17:00",11.6,9.8,0.0,1.3,1025.4
"2021-03-16 09:18:00",11.7,9.9,0.0,1.3,1025.4
"2021-03-16 09:19:00",11.9,10.1,0.0,1.0,1025.3
"2021-03-16 09:20:00",12.1,10.3,0.0,1.0,1025.3
"2021-03-16 09:21:00",12.2,10.3,0.0,1.2,1025.4
"2021-03-16 09:22:00",12.2,10.1,0.0,1.3,1025.4
"2021-03-16 09:23:00",12.4,10.5,0.0,1.1,1025.4
"2021-03-16 09:24:00",12.4,10.1,0.0,1.3,1025.3
"2021-03-16 09:25:00",12.3,10.2,0.0,1.3,1025.3
"2021-03-16 09:26:00",12.4,10.5,0.0,1.4,1025.4
"2021-03-16 09:27:00",12.4,10.1,0.0,1.3,1025.4
"2021-03-16 09:28:00",12.5,10.2,0.0,1.3,1025.3
"2021-03-16 09:29:00",12.7,10.6,0.0,1.4,1025.4
"2021-03-16 09:30:00",12.8,10.5,0.0,1.1,1025.3
"2021-03-16 09:31:00",12.9,10.6,0.0,1.1,1025.3
"2021-03-16 09:32:00",13.0,10.5,0.0,0.7,1025.4
"2021-03-16 09:33:00",12.9,10.3,0.0,1.1,1025.3
"2021-03-16 09:34:00",12.8,10.2,0.0,1.4,1025.3
"2021-03-16 09:35:00",12.8,10.3,0.0,1.4,1025.4
"2021-03-16 09:36:00",12.7,9.9,0.0,1.3,1025.3
"2021-03-16 09:37:00",12.8,10.0,0.0,1.1,1025.3
"2021-03-16 09:38:00",12.8,10.3,0.0,1.7,1025.3
"2021-03-16 09:39:00",12.9,10.1,0.0,1.5,1025.3
"2021-03-16 09:40:00",13.1,10.5,0.0,1.1,1025.3
"2021-03-16 09:41:00",13.1,10.1,0.0,1.2,1025.3
"2021-03-16 09:42:00",13.1,10.5,0.0,1.8,1025.3
"2021-03-16 09:43:00",13.2,10.4,0.0,1.9,1025.2
"2021-03-16 09:44:00",13.3,10.5,0.0,1.6,1025.2
"2021-03-16 09:45:00",13.4,10.6,0.0,1.8,1025.2
"2021-03-16 09:46:00",13.6,10.6,0.0,1.2,1025.3
"2021-03-16 09:47:00",13.6,10.6,0.0,1.1,1025.3
"2021-03-16 09:48:00",13.7,10.5,0.0,1.1,1025.3
"2021-03-16 09:49:00",13.6,10.4,0.0,1.1,1025.2
"2021-03-16 09:50:00",13.6,10.4,0.0,0.9,1025.2
"2021-03-16 09:51:00",13.4,10.0,0.0,0.7,1025.3
"2021-03-16 09:52:00",13.4,10.2,0.0,0.9,1025.3
"2021-03-16 09:53:00",13.3,10.3,0.0,0.7,1025.3
"2021-03-16 09:54:00",13.3,10.1,0.0,0.6,1025.3
"2021-03-16 09:55:00",13.2,10.0,0.0,0.5,1025.3
"2021-03-16 09:56:00",13.2,10.0,0.0,0.0,1025.4
"2021-03-16 09:57:00",13.1,9.9,0.0,0.0,1025.4
"2021-03-16 09:58:00",12.9,9.7,0.0,0.5,1025.4
"2021-03-16 09:59:00",12.9,9.7,0.0,0.6,1025.4
"2021-03-16 10:00:00",12.8,9.4,0.0,0.6,1025.4
"2021-03-16 10:01:00",12.8,9.6,0.0,0.6,1025.4
"2021-03-16 10:02:00",12.8,9.6,0.0,0.7,1025.3
"2021-03-16 10:03:00",12.7,9.7,0.0,0.0,1025.4
"2021-03-16 10:04:00",12.7,9.7,0.0,0.0,1025.4
"2021-03-16 10:05:00",12.7,9.7,0.0,0.5,1025.4
"2021-03-16 10:06:00",12.6,9.6,0.0,0.6,1025.3
"2021-03-16 10:07:00",12.6,9.4,0.0,0.7,1025.4
"2021-03-16 10:08:00",12.6,9.6,0.0,0.7,1025.4
"2021-03-16 10:09:00",12.6,9.6,0.0,0.7,1025.3
"2021-03-16 10:10:00",12.5,9.3,0.0,0.7,1025.4
"2021-03-16 10:11:00",12.5,9.5,0.0,0.6,1025.4
"2021-03-16 10:12:00",12.5,9.5,0.0,0.6,1025.4
"2021-03-16 10:13:00",12.5,9.3,0.0,0.6,1025.4
"2021-03-16 10:14:00",12.5,9.3,0.0,0.5,1025.4
"2021-03-16 10:15:00",12.5,9.3,0.0,0.5,1025.4
"2021-03-16 10:16:00",12.5,9.5,0.0,0.5,1025.4
"2021-03-16 10:17:00",12.6,9.8,0.0,0.5,1025.4
"2021-03-16 10:18:00",12.5,9.5,0.0,0.0,1025.4
"2021-03-16 10:19:00",12.4,9.4,0.0,0.0,1025.5
"2021-03-16 10:20:00",12.4,9.4,0.0,0.0,1025.4
"2021-03-16 10:21:00",12.4,9.4,0.0,0.0,1025.5
"2021-03-16 10:22:00",12.3,9.3,0.0,0.0,1025.4
"2021-03-16 10:23:00",12.3,9.1,0.0,0.0,1025.5
"2021-03-16 10:24:00",12.3,9.3,0.0,0.0,1025.4
"2021-03-16 10:25:00",12.2,9.4,0.0,0.0,1025.4
"2021-03-16 10:26:00",12.2,9.2,0.0,0.0,1025.4
"2021-03-16 10:27:00",12.2,9.2,0.0,0.0,1025.5
"2021-03-16 10:28:00",12.2,9.4,0.0,0.0,1025.5
"2021-03-16 10:29:00",12.1,9.3,0.0,0.0,1025.5
"2021-03-16 10:30:00",12.1,9.3,0.0,0.5,1025.6
"2021-03-16 10:31:00",12.1,9.3,0.0,0.5,1025.5
"2021-03-16 10:32:00",12.1,9.1,0.0,0.6,1025.5
"2021-03-16 10:33:00",12.1,9.3,0.0,0.6,1025.5
"2021-03-16 10:34:00",12.1,9.3,0.0,0.6,1025.5
"2021-03-16 10:35:00",12.2,9.4,0.0,0.6,1025.6
"2021-03-16 10:36:00",12.1,9.3,0.0,0.6,1025.5
"2021-03-16 10:37:00",12.2,9.6,0.0,0.7,1025.5
"2021-03-16 10:38:00",12.2,9.6,0.0,0.7,1025.5
"2021-03-16 10:39:00",12.2,9.6,0.0,0.7,1025.4
"2021-03-16 10:40:00",12.2,9.4,0.0,0.6,1025.4
"2021-03-16 10:41:00",12.2,9.4,0.0,0.6,1025.5
"2021-03-16 10:42:00",12.2,9.6,0.0,0.6,1025.4
"2021-03-16 10:43:00",12.3,9.7,0.0,0.7,1025.5
"2021-03-16 10:44:00",12.2,9.8,0.0,0.7,1025.5
"2021-03-16 10:45:00",12.3,9.5,0.0,0.7,1025.5
"2021-03-16 10:46:00",12.3,9.5,0.0,0.9,1025.5
"2021-03-16 10:47:00",12.3,9.7,0.0,1.1,1025.5
"2021-03-16 10:48:00",12.4,9.6,0.0,1.1,1025.5
"2021-03-16 10:49:00",12.4,9.6,0.0,1.0,1025.5
"2021-03-16 10:50:00",12.5,9.7,0.0,1.0,1025.4
"2021-03-16 10:51:00",12.6,9.8,0.0,1.0,1025.4
"2021-03-16 10:52:00",12.7,9.9,0.0,0.9,1025.4
"2021-03-16 10:53:00",12.7,9.7,0.0,0.9,1025.4
"2021-03-16 10:54:00",12.7,9.5,0.0,0.9,1025.4
"2021-03-16 10:55:00",12.7,9.7,0.0,0.9,1025.4
"2021-03-16 10:56:00",12.8,9.8,0.0,0.9,1025.4
"2021-03-16 10:57:00",12.8,9.6,0.0,0.9,1025.4
"2021-03-16 10:58:00",12.8,9.6,0.0,1.0,1025.4
"2021-03-16 10:59:00",12.8,9.6,0.0,0.9,1025.3
"2021-03-16 11:00:00",12.9,9.5,0.0,0.8,1025.3
"2021-03-16 11:01:00",12.9,9.9,0.0,0.8,1025.3
"2021-03-16 11:02:00",12.9,9.9,0.0,0.7,1025.3
"2021-03-16 11:03:00",12.8,9.6,0.0,0.6,1025.4
"2021-03-16 11:04:00",12.8,9.6,0.0,0.5,1025.3
"2021-03-16 11:05:00",12.8,9.6,0.0,0.5,1025.3
"2021-03-16 11:06:00",12.8,9.6,0.0,0.5,1025.3
"2021-03-16 11:07:00",12.7,9.7,0.0,0.8,1025.3
"2021-03-16 11:08:00",12.7,9.7,0.0,0.6,1025.3
"2021-03-16 11:09:00",12.7,9.7,0.0,0.7,1025.3
"2021-03-16 11:10:00",12.7,9.7,0.0,0.7,1025.3
"2021-03-16 11:11:00",12.6,9.6,0.0,0.7,1025.3
"2021-03-16 11:12:00",12.6,9.8,0.0,0.9,1025.3
"2021-03-16 11:13:00",12.6,9.6,0.0,1.1,1025.2
"2021-03-16 11:14:00",12.7,9.9,0.0,0.9,1025.2
"2021-03-16 11:15:00",12.7,9.9,0.0,1.0,1025.2
"2021-03-16 11:16:00",12.8,9.8,0.0,1.2,1025.2
"2021-03-16 11:17:00",12.7,9.7,0.0,1.0,1025.2
"2021-03-16 11:18:00",12.7,9.7,0.0,0.9,1025.2
"2021-03-16 11:19:00",12.7,9.7,0.0,1.3,1025.2
"2021-03-16 11:20:00",12.7,9.7,0.0,1.5,1025.1
"2021-03-16 11:21:00",12.8,10.2,0.0,1.4,1025.1
"2021-03-16 11:22:00",13.0,10.2,0.0,1.3,1025.1
"2021-03-16 11:23:00",13.1,10.1,0.0,1.3,1025.1
"2021-03-16 11:24:00",13.2,10.4,0.0,1.0,1025.1
"2021-03-16 11:25:00",13.3,10.5,0.0,0.9,1025.1
"2021-03-16 11:26:00",13.3,10.3,0.0,1.1,1025.2
"2021-03-16 11:27:00",13.3,10.5,0.0,1.0,1025.1
"2021-03-16 11:28:00",13.3,10.3,0.0,0.9,1025.0
"2021-03-16 11:29:00",13.3,10.1,0.0,1.0,1025.1
"2021-03-16 11:30:00",13.2,10.4,0.0,1.0,1025.1
"2021-03-16 11:31:00",13.2,10.2,0.0,1.0,1025.1
"2021-03-16 11:32:00",13.2,10.0,0.0,0.9,1025.1
"2021-03-16 11:33:00",13.2,10.2,0.0,0.9,1025.1
"2021-03-16 11:34:00",13.2,10.2,0.0,0.8,1025.0
"2021-03-16 11:35:00",13.1,10.3,0.0,1.1,1025.1
"2021-03-16 11:36:00",13.1,10.1,0.0,1.1,1025.0
"2021-03-16 11:37:00",13.2,10.4,0.0,0.9,1025.1
"2021-03-16 11:38:00",13.2,10.2,0.0,0.9,1025.0
"2021-03-16 11:39:00",13.2,10.4,0.0,1.1,1025.0
"2021-03-16 11:40:00",13.2,10.4,0.0,1.1,1025.0
"2021-03-16 11:41:00",13.2,10.2,0.0,1.2,1025.1
"2021-03-16 11:42:00",13.2,10.2,0.0,0.8,1025.1
"2021-03-16 11:43:00",13.3,10.5,0.0,0.6,1025.1
"2021-03-16 11:44:00",13.3,10.3,0.0,0.6,1025.1
"2021-03-16 11:45:00",13.3,10.1,0.0,0.6,1025.1
"2021-03-16 11:46:00",13.3,10.1,0.0,0.9,1025.2
"2021-03-16 11:47:00",13.2,10.2,0.0,1.1,1025.1
"2021-03-16 11:48:00",13.2,10.2,0.0,1.0,1025.1
"2021-03-16 11:49:00",13.2,10.2,0.0,1.0,1025.0
"2021-03-16 11:50:00",13.2,10.2,0.0,1.0,1025.0
"2021-03-16 11:51:00",13.2,10.4,0.0,1.0,1025.1
"2021-03-16 11:52:00",13.2,10.2,0.0,1.3,1025.1
"2021-03-16 11:53:00",13.2,10.0,0.0,1.4,1025.1
"2021-03-16 11:54:00",13.2,10.2,0.0,1.0,1025.1
"2021-03-16 11:55:00",13.3,10.3,0.0,1.2,1025.1
"2021-03-16 11:56:00",13.3,10.3,0.0,1.3,1025.1
"2021-03-16 11:57:00",13.3,10.3,0.0,1.4,1025.1
"2021-03-16 11:58:00",13.3,10.3,0.0,1.4,1025.0
"2021-03-16 11:59:00",13.3,10.3,0.0,1.2,1025.0
"2021-03-16 12:00:00",13.3,10.3,0.0,1.4,1025.0
"2021-03-16 12:01:00",13.4,10.4,0.0,1.4,1025.0
"2021-03-16 12:02:00",13.4,10.4,0.0,1.2,1024.9
"2021-03-16 12:03:00",13.4,10.4,0.0,1.3,1024.9
"2021-03-16 12:04:00",13.4,10.2,0.0,1.4,1024.9
"2021-03-16 12:05:00",13.5,10.3,0.0,1.4,1024.9
"2021-03-16 12:06:00",13.6,10.4,0.0,1.3,1024.9
"2021-03-16 12:07:00",13.6,10.6,0.0,1.5,1024.8
"2021-03-16 12:08:00",13.7,10.5,0.0,2.1,1024.9
"2021-03-16 12:09:00",13.7,10.5,0.0,1.3,1024.8
"2021-03-16 12:10:00",13.7,10.5,0.0,1.7,1024.8
"2021-03-16 12:11:00",13.8,10.8,0.0,2.4,1024.9
"2021-03-16 12:12:00",13.9,11.1,0.0,2.1,1024.9
"2021-03-16 12:13:00",14.0,10.6,0.0,1.2,1024.9
"2021-03-16 12:14:00",14.1,10.7,0.0,1.5,1024.9
"2021-03-16 12:15:00",14.1,10.7,0.0,1.5,1024.8
"2021-03-16 12:16:00",14.1,10.5,0.0,1.5,1024.8
"2021-03-16 12:17:00",14.1,10.5,0.0,1.5,1024.8
"2021-03-16 12:18:00",14.1,10.7,0.0,1.5,1024.8
"2021-03-16 12:19:00",14.1,10.7,0.0,1.5,1024.8
"2021-03-16 12:20:00",14.1,10.7,0.0,1.3,1024.9
"2021-03-16 12:21:00",14.0,10.6,0.0,1.2,1024.8
"2021-03-16 12:22:00",13.9,10.5,0.0,1.3,1024.8
"2021-03-16 12:23:00",13.8,10.4,0.0,1.3,1024.8
"2021-03-16 12:24:00",13.9,10.7,0.0,1.1,1024.9
"2021-03-16 12:25:00",13.8,10.4,0.0,1.1,1024.8
"2021-03-16 12:26:00",13.8,10.4,0.0,1.1,1024.8
"2021-03-16 12:27:00",13.9,10.7,0.0,1.0,1024.8
"2021-03-16 12:28:00",13.9,10.7,0.0,1.0,1024.9
"2021-03-16 12:29:00",13.8,10.4,0.0,1.1,1024.9
"2021-03-16 12:30:00",13.8,10.4,0.0,1.1,1024.9
"2021-03-16 12:31:00",13.8,10.6,0.0,1.0,1024.9
"2021-03-16 12:32:00",13.8,10.4,0.0,1.3,1024.9
"2021-03-16 12:33:00",13.8,10.6,0.0,1.3,1024.9
"2021-03-16 12:34:00",13.8,10.6,0.0,1.3,1024.9
"2021-03-16 12:35:00",13.8,10.6,0.0,1.3,1024.9
"2021-03-16 12:36:00",13.8,10.4,0.0,1.4,1024.9
"2021-03-16 12:37:00",13.8,10.4,0.0,1.4,1024.9
"2021-03-16 12:38:00",13.8,10.2,0.0,1.5,1025.0
"2021-03-16 12:39:00",13.8,10.4,0.0,1.3,1024.9
"2021-03-16 12:40:00",13.9,10.5,0.0,1.6,1024.9
"2021-03-16 12:41:00",13.9,10.7,0.0,1.1,1024.9
"2021-03-16 12:42:00",14.0,10.8,0.0,1.0,1024.9
"2021-03-16 12:43:00",14.1,10.7,0.0,1.1,1024.9
"2021-03-16 12:44:00",14.1,10.5,0.0,1.2,1024.9
"2021-03-16 12:45:00",14.0,10.4,0.0,1.3,1024.9
"2021-03-16 12:46:00",14.0,10.4,0.0,1.3,1024.8
"2021-03-16 12:47:00",14.0,10.6,0.0,1.6,1024.9
"2021-03-16 12:48:00",14.0,10.6,0.0,1.7,1024.8
"2021-03-16 12:49:00",14.0,10.4,0.0,1.5,1024.8
"2021-03-16 12:50:00",14.1,10.5,0.0,1.5,1024.8
"2021-03-16 12:51:00",14.2,10.8,0.0,1.3,1024.9
"2021-03-16 12:52:00",14.2,10.6,0.0,1.4,1024.8
"2021-03-16 12:53:00",14.2,10.6,0.0,1.4,1024.8
"2021-03-16 12:54:00",14.2,10.6,0.0,1.4,1024.8